Temperature
28 27 27 28 28 29 29 28 27 28 29 28 27 26 26 25 25 24 24 23 22 21 20 19 19 18 18 17 17 17 17 17 17 17 16 16 16 16 16 16 15 15 15 15
27 27 28 29 29 29 28 28 27 28 29 28 27 26 26 25 25 24 23 23 22 21 20 19 19 18 18 17 17 17 17 16 16 16 16 16 16 16 16 15 15 15 15 15
28 29 30 29 29 28 28 28 28 28 28 28 27 25 25 25 25 24 23 23 22 21 20 19 19 18 18 17 17 16 16 16 16 16 16 16 16 16 15 15 15 15 15 15
29 30 30 29 29 28 27 29 28 28 27 27 27 25 24 25 24 24 24 23 22 21 20 19 19 18 18 17 17 16 16 16 16 16 15 15 15 15 15 15 15 15 14 14
29 30 30 29 29 29 28 29 29 28 28 27 27 25 24 24 23 23 23 23 22 21 20 19 19 18 17 17 16 16 16 15 15 15 15 15 14 14 14 14 14 14 14 14
29 30 30 30 30 30 29 29 28 28 28 26 26 25 23 23 23 23 22 22 22 21 20 19 18 18 17 17 16 16 15 15 15 15 14 14 14 14 14 14 14 14 14 14
28 29 30 30 29 29 28 27 25 25 25 24 26 25 23 23 24 23 22 21 21 20 20 19 18 17 17 16 16 15 15 15 15 14 14 14 14 14 14 14 14 14 14 14
27 28 29 29 29 28 28 27 25 24 24 25 26 24 22 23 23 23 22 21 21 20 19 18 17 17 16 16 15 15 15 15 14 14 14 14 14 14 13 13 13 13 13 13
27 27 29 30 30 28 27 27 28 26 25 25 25 23 22 23 23 22 22 21 21 20 19 18 17 17 16 16 15 15 15 14 14 14 14 14 14 13 13 13 13 13 13 13
27 26 28 29 29 29 28 28 27 25 24 23 24 23 21 21 22 22 22 21 20 19 18 18 17 16 16 15 15 15 15 14 14 14 13 14 13 13 13 13 13 13 13 13
27 26 27 28 27 27 27 27 26 26 25 23 22 22 23 22 22 22 22 21 20 19 18 18 17 16 16 15 15 15 14 14 14 14 13 13 13 13 13 13 13 13 13 12
26 25 24 26 28 28 27 27 26 24 24 24 23 22 23 22 22 22 21 20 19 18 18 17 17 16 16 15 15 14 14 14 14 13 13 13 13 13 13 12 12 12 12 12
25 24 23 25 26 27 26 27 27 26 25 24 23 22 23 23 22 22 21 20 19 18 18 17 16 16 15 15 14 14 14 14 13 13 13 13 13 13 12 12 12 12 12 12
24 23 23 23 24 25 26 26 26 26 24 23 23 22 22 22 22 21 20 20 19 18 17 17 16 15 15 14 14 14 14 13 13 13 13 13 13 12 12 12 12 12 12 12
24 23 24 24 25 26 26 26 26 25 24 23 23 22 22 22 22 21 20 19 18 18 17 16 16 15 15 14 14 14 13 13 13 13 13 13 13 12 12 12 12 12 12 12
24 23 23 24 25 26 25 25 25 25 24 24 23 22 22 21 21 20 20 19 18 17 17 16 15 15 14 14 14 13 13 13 13 13 13 13 12 12 12 12 12 11 11 11
24 23 23 23 25 25 24 24 25 24 24 23 22 22 22 21 21 20 19 18 18 17 16 15 15 14 14 14 13 13 13 13 13 13 12 12 12 12 12 12 12 11 11 11
23 22 22 23 23 22 23 25 25 24 23 23 22 22 21 21 20 19 18 18 17 16 16 15 14 14 14 14 13 13 13 13 13 13 12 12 12 12 12 12 11 11 11 11
23 22 22 22 22 23 24 24 24 23 22 22 22 21 21 20 20 19 18 17 17 16 15 15 14 14 14 13 13 13 13 13 13 13 12 12 12 12 12 11 11 11 11 11
24 23 22 22 22 21 22 24 23 23 21 21 21 20 20 20 19 18 17 17 16 16 15 14 14 14 13 13 13 13 13 13 12 12 12 12 12 12 11 11 11 11 11 11
23 22 22 22 21 22 23 23 23 21 20 20 20 19 19 18 18 17 16 16 16 15 15 14 14 14 13 13 13 13 13 12 12 12 12 12 12 12 11 11 11 11 11 11
23 22 22 22 21 21 22 22 21 19 19 19 19 19 18 17 17 17 16 16 15 15 15 14 14 13 13 13 13 13 13 12 12 12 12 12 12 12 12 11 11 11 11 11
23 23 22 21 21 21 21 21 20 20 19 19 19 18 18 17 17 17 16 15 15 15 14 14 14 13 13 13 13 13 12 12 12 12 12 12 12 12 11 11 11 11 11 11
24 23 22 22 22 22 21 21 20 20 19 19 18 18 18 17 17 16 16 15 15 14 14 14 14 13 13 13 13 13 12 12 12 12 12 12 12 12 12 12 12 12 12 11
22 22 22 21 22 21 21 20 20 19 19 19 18 18 17 17 16 16 15 15 14 14 14 14 13 13 13 13 13 12 12 12 12 12 12 12 12 12 12 12 12 12 12 11
22 22 21 21 21 21 20 20 19 19 19 18 18 18 17 17 16 16 15 15 14 14 14 13 13 13 13 13 12 12 12 12 12 12 12 12 12 12 12 12 12 12 12 12
Wind_Speed
8 7 9 9 8 8 7 5 7 3 4 4 3 2 3 4 5 4 4 4 4 4 5 4 4 4 4 3 2 2 1 1 1 1 2 2 2 2 2 1 1 2 2 2
5 9 10 8 6 6 7 6 6 3 2 2 3 3 3 4 4 4 4 5 4 4 4 4 4 3 3 3 2 2 2 1 2 2 1 1 2 3 2 1 1 2 3 3
7 4 3 5 5 5 7 7 7 5 3 5 7 7 5 6 5 5 4 4 4 4 4 3 3 3 3 3 3 2 2 1 1 1 1 2 1 2 2 2 1 2 3 4
6 3 3 5 4 5 7 7 8 8 8 7 7 6 5 5 5 5 4 3 3 4 4 3 3 3 3 2 3 3 2 2 2 2 2 3 2 3 3 3 2 3 3 4
6 5 5 4 5 4 7 9 10 11 11 9 6 5 2 4 3 3 3 3 3 3 4 3 3 3 3 3 3 3 3 2 2 2 2 3 3 3 3 3 3 3 3 3
6 4 4 4 5 5 7 9 10 10 9 7 5 4 1 2 4 3 2 2 3 3 3 4 4 4 3 3 3 2 2 2 2 2 3 3 3 4 5 4 4 3 3 3
5 5 1 3 5 5 7 8 6 5 4 5 5 3 1 3 4 4 4 2 3 4 4 4 5 3 3 3 3 3 2 2 2 2 2 3 4 4 4 4 4 4 3 3
6 3 1 2 4 6 6 7 5 7 7 6 4 1 3 5 7 6 6 4 5 5 4 4 3 3 3 3 3 3 2 2 2 3 3 3 4 3 3 3 3 4 4 4
6 5 5 4 4 5 6 7 8 7 10 8 2 3 5 4 6 6 6 5 4 4 4 3 3 3 3 3 3 2 2 2 3 3 3 3 3 3 3 3 3 3 4 4
7 9 9 5 5 5 5 7 6 5 5 6 5 2 3 4 3 3 4 4 4 4 4 4 3 3 3 3 3 2 2 2 2 3 3 4 4 4 3 3 3 4 4 4
8 6 8 7 6 7 6 6 5 5 5 6 6 4 4 3 2 3 4 5 4 4 3 3 3 3 3 3 3 2 2 2 2 3 3 4 4 4 4 4 3 3 4 5
6 5 8 10 7 5 6 6 5 5 6 6 5 2 4 4 4 4 4 4 5 4 4 3 3 3 4 4 4 4 3 3 3 3 2 3 3 4 4 4 4 4 4 5
6 3 5 5 2 3 5 6 6 5 5 6 6 2 4 4 5 5 5 5 5 5 4 4 4 4 4 4 4 4 4 4 3 4 3 3 3 4 4 4 4 4 5 5
2 3 5 7 8 9 8 8 7 7 5 5 4 3 3 4 5 5 5 5 5 5 5 5 5 4 4 4 4 5 4 4 4 4 4 4 4 4 4 4 3 4 4 5
2 4 6 9 11 9 8 8 7 6 6 5 5 5 5 5 5 5 5 5 5 5 5 5 5 5 4 4 4 5 5 4 5 4 4 4 4 4 3 3 3 3 4 5
1 4 7 9 9 7 7 8 6 6 6 5 5 4 6 5 5 5 5 5 4 5 5 6 6 5 5 5 5 5 5 4 4 4 5 4 4 3 3 3 3 3 4 4
3 5 6 7 8 8 5 5 5 4 4 5 5 4 4 5 6 6 5 5 4 4 5 5 5 5 5 5 4 4 5 4 4 4 5 5 4 3 3 4 3 4 4 4
5 6 5 7 7 6 1 4 4 4 4 5 4 5 5 5 5 4 4 5 5 5 5 5 4 4 4 4 4 4 5 5 5 5 5 5 4 4 3 3 3 3 3 4
4 4 5 5 6 6 2 2 3 2 3 5 5 5 6 6 5 4 6 6 5 4 4 3 3 4 4 5 5 4 5 5 6 5 5 5 5 4 3 3 3 3 4 4
6 5 5 6 7 6 3 4 4 1 0 5 6 6 7 7 5 4 7 6 6 4 3 3 4 4 4 5 5 5 6 5 5 5 5 4 4 4 3 3 3 4 4 3
5 5 7 8 8 4 3 5 4 3 3 6 6 5 7 7 5 5 6 5 4 4 3 3 3 3 4 4 4 5 5 5 5 5 5 4 3 3 3 3 3 4 4 4
5 5 6 6 7 3 5 4 3 3 4 5 5 5 5 6 6 6 5 4 4 4 4 4 3 3 3 4 4 5 5 5 4 4 4 4 3 4 4 3 3 4 4 4
5 4 4 3 2 2 3 4 3 2 3 4 4 5 5 6 6 6 5 5 5 4 4 3 4 4 4 3 4 5 5 5 4 4 4 4 4 3 3 3 4 4 3 3
3 2 3 4 3 2 1 2 2 3 3 4 4 5 5 6 6 6 5 4 4 4 4 3 4 5 4 4 4 4 5 4 4 4 4 3 3 3 2 3 3 3 3 4
7 6 5 6 5 4 3 3 3 3 4 4 4 5 6 6 6 5 4 4 4 4 3 3 4 5 5 4 4 5 4 3 4 4 4 4 4 3 1 1 2 2 2 2
6 6 6 5 3 4 4 4 4 4 4 4 5 6 5 5 5 5 4 3 3 4 3 3 4 5 5 5 5 4 3 3 4 5 5 5 4 3 2 2 1 1 2 2
Wind_Direction
241 243 259 263 261 288 298 289 287 258 198 223 253 234 170 184 178 164 154 155 150 127 119 110 107 107 102 105 98 93 72 61 16 360 334 326 310 297 280 255 263 261 273 282
246 246 255 268 276 296 304 290 277 258 201 243 259 247 186 194 178 161 167 160 152 134 120 113 117 118 126 125 110 98 89 50 29 0 327 288 304 287 277 297 247 253 282 289
254 272 261 279 293 295 284 291 292 290 263 237 229 233 195 179 163 164 183 163 151 140 128 130 136 127 118 122 124 111 88 57 39 343 332 328 321 310 331 318 284 256 265 272
291 308 283 267 277 295 291 295 292 279 263 259 245 254 199 184 181 181 176 153 134 127 123 115 89 81 80 90 101 95 85 60 40 355 357 334 328 321 318 312 315 310 286 279
297 301 294 294 316 314 303 301 291 277 263 263 255 267 234 185 183 181 174 157 137 118 109 105 104 89 80 71 73 73 70 51 28 353 340 318 322 316 313 316 312 301 292 282
288 287 296 318 316 302 310 304 291 277 271 269 280 284 267 188 176 173 149 125 120 103 92 84 80 84 78 74 75 77 64 35 12 348 337 325 314 311 310 311 311 302 288 279
276 244 249 329 315 322 321 319 318 308 292 289 297 293 110 104 133 131 122 145 111 88 81 78 65 58 57 61 58 52 49 21 359 342 335 323 303 298 295 305 310 305 299 302
311 303 313 323 321 321 312 310 301 304 300 295 292 11 93 85 101 96 91 84 93 82 74 74 63 58 55 56 63 56 30 12 353 339 331 326 314 309 312 313 307 308 310 311
330 319 315 321 328 324 306 306 313 303 299 301 314 105 106 80 88 84 83 70 78 75 59 53 43 48 50 55 57 45 0 352 345 339 340 334 335 332 316 301 302 314 315 316
313 307 310 327 315 288 298 314 324 313 311 309 321 27 79 63 83 75 70 67 62 62 50 47 46 40 42 40 43 33 8 7 359 346 336 341 351 332 322 325 326 320 321 322
327 313 308 312 313 324 324 314 319 319 322 309 311 2 70 71 66 65 60 57 46 56 46 29 38 44 37 27 17 13 2 3 357 345 359 359 343 333 336 331 333 335 329 323
340 320 302 301 308 317 314 317 319 313 310 301 303 358 68 68 60 62 56 51 55 47 25 21 30 26 21 16 11 4 360 356 349 352 5 351 326 329 336 333 337 333 326 322
347 320 296 298 316 343 333 325 316 317 310 309 310 352 87 58 43 46 47 49 50 40 22 21 24 21 10 7 6 358 349 352 349 348 346 341 334 336 332 327 335 335 331 327
295 288 293 298 307 318 322 324 330 328 318 322 322 343 20 21 22 31 37 39 33 32 19 17 16 15 13 4 354 342 343 350 342 346 345 342 335 327 322 327 337 335 332 330
300 298 295 291 294 302 315 325 331 333 327 316 323 340 6 16 28 28 28 29 21 13 5 7 11 10 1 350 346 344 347 347 341 338 334 331 323 318 324 329 332 328 330 337
286 291 297 296 299 304 313 317 322 332 336 331 334 357 40 35 28 21 13 11 6 352 352 359 0 360 348 341 343 343 338 336 337 330 325 319 315 315 316 320 327 334 337 336
288 286 294 290 295 297 296 331 332 346 347 332 332 1 15 9 8 3 2 357 352 354 355 353 349 344 335 335 338 330 327 328 328 321 314 315 317 326 331 333 344 339 336 334
275 292 285 283 294 289 335 21 15 8 5 3 6 2 3 6 357 3 4 2 355 0 354 347 338 331 327 331 331 328 327 325 321 318 322 332 335 344 351 350 341 338 330 318
208 253 278 287 286 280 289 357 357 349 348 10 5 360 0 360 346 360 9 10 8 5 359 335 324 321 327 329 330 333 324 317 318 325 329 328 331 338 339 342 335 334 320 310
192 216 251 275 286 294 342 20 10 334 280 25 10 2 352 340 322 342 3 359 359 360 348 331 330 325 331 331 332 329 322 324 327 327 327 330 334 333 334 328 323 318 307 303
228 234 251 271 275 284 14 6 355 316 10 12 8 5 348 341 340 339 338 349 356 347 336 340 336 331 327 328 332 321 318 321 322 325 328 328 326 318 319 320 313 305 307 308
263 264 263 266 268 272 24 1 15 32 14 357 357 358 345 337 332 328 329 339 336 333 330 337 340 331 322 330 331 324 324 319 316 318 319 316 316 319 333 332 308 303 299 297
258 274 285 293 307 58 31 50 64 30 341 335 337 337 330 320 318 322 330 336 335 335 334 334 332 323 319 326 325 321 317 313 317 319 318 313 317 320 319 311 309 307 304 312
272 283 269 277 265 261 348 18 7 347 323 318 321 315 312 310 313 319 324 325 327 325 324 326 321 314 316 321 323 321 318 321 320 318 313 306 294 298 311 322 325 324 333 334
297 295 280 270 269 276 294 317 326 326 325 326 324 317 313 313 314 316 320 322 322 315 315 320 321 316 320 326 325 321 320 329 322 311 303 299 296 293 307 312 320 337 349 331
273 271 269 277 291 297 305 318 322 318 311 313 313 313 315 317 315 316 315 318 316 312 308 313 321 319 320 322 320 323 328 320 313 308 309 306 304 303 286 253 267 337 243 259
Height
1480 1482 1480 1474 1470 1470 1469 1473 1475 1470 1466 1470 1474 1477 1478 1481 1482 1485 1488 1491 1493 1495 1497 1498 1498 1498 1498 1499 1499 1498 1499 1498 1498 1498 1497 1497 1497 1497 1497 1497 1496 1496 1495 1494
1480 1479 1470 1467 1467 1468 1470 1473 1473 1468 1464 1469 1475 1478 1478 1480 1482 1484 1487 1490 1492 1494 1495 1497 1497 1498 1498 1498 1498 1498 1498 1498 1497 1497 1497 1496 1496 1495 1495 1495 1494 1493 1492 1492
1476 1469 1465 1467 1468 1471 1471 1472 1471 1469 1466 1467 1473 1480 1478 1478 1481 1484 1486 1488 1490 1492 1494 1496 1497 1497 1498 1498 1497 1498 1497 1496 1496 1495 1495 1495 1494 1494 1493 1493 1492 1491 1489 1489
1467 1464 1465 1467 1468 1470 1474 1465 1466 1467 1472 1474 1472 1487 1480 1478 1480 1482 1485 1487 1489 1491 1493 1495 1496 1496 1497 1497 1497 1497 1496 1496 1495 1494 1494 1493 1492 1492 1491 1491 1489 1488 1488 1487
1470 1465 1466 1469 1467 1467 1468 1463 1463 1463 1466 1471 1471 1481 1484 1477 1482 1482 1484 1487 1489 1491 1492 1494 1495 1496 1496 1497 1497 1496 1496 1495 1494 1493 1493 1492 1491 1490 1489 1489 1488 1486 1485 1484
1467 1464 1464 1465 1464 1464 1463 1463 1462 1460 1463 1481 1475 1482 1489 1480 1482 1483 1485 1487 1489 1491 1493 1494 1495 1496 1496 1496 1496 1495 1495 1494 1493 1492 1491 1490 1489 1488 1487 1486 1485 1484 1483 1482
1471 1465 1463 1465 1467 1465 1466 1474 1486 1488 1489 1489 1473 1479 1489 1480 1480 1483 1486 1488 1491 1492 1493 1494 1495 1495 1496 1495 1495 1494 1494 1493 1492 1490 1489 1488 1487 1486 1485 1485 1484 1483 1481 1479
1479 1477 1466 1464 1467 1472 1470 1474 1492 1501 1496 1486 1474 1485 1489 1480 1482 1484 1487 1490 1492 1493 1494 1495 1496 1496 1495 1495 1494 1493 1492 1491 1490 1489 1488 1487 1485 1485 1484 1483 1482 1481 1480 1479
1484 1482 1466 1464 1464 1468 1473 1472 1468 1480 1480 1484 1480 1484 1487 1484 1486 1487 1489 1491 1493 1494 1495 1496 1496 1495 1495 1494 1494 1493 1491 1490 1489 1488 1486 1485 1484 1483 1482 1482 1481 1480 1478 1477
1478 1484 1470 1464 1465 1465 1467 1468 1474 1484 1496 1499 1489 1488 1494 1490 1489 1488 1489 1491 1493 1495 1496 1496 1496 1496 1495 1495 1494 1492 1491 1489 1488 1487 1485 1484 1483 1481 1481 1480 1479 1478 1476 1475
1477 1486 1480 1471 1472 1473 1472 1472 1474 1478 1484 1498 1504 1501 1487 1489 1488 1488 1490 1492 1493 1494 1496 1496 1496 1496 1495 1495 1494 1493 1491 1489 1488 1486 1484 1483 1481 1480 1479 1478 1477 1476 1474 1473
1482 1486 1490 1479 1470 1467 1470 1472 1475 1489 1491 1486 1494 1502 1485 1487 1488 1489 1491 1493 1494 1495 1496 1496 1496 1495 1495 1494 1493 1492 1491 1489 1487 1486 1484 1482 1481 1479 1478 1477 1476 1474 1473 1471
1488 1494 1499 1489 1482 1475 1474 1471 1471 1474 1482 1488 1495 1500 1486 1487 1488 1490 1492 1493 1495 1496 1496 1496 1495 1495 1495 1494 1493 1491 1490 1489 1487 1485 1483 1482 1480 1479 1478 1476 1475 1473 1472 1470
1491 1494 1499 1504 1494 1481 1479 1475 1472 1476 1485 1491 1492 1492 1488 1488 1490 1491 1493 1494 1495 1496 1496 1496 1495 1495 1494 1494 1492 1491 1489 1488 1486 1485 1483 1481 1480 1479 1477 1476 1474 1472 1471 1469
1490 1494 1491 1488 1481 1477 1477 1476 1475 1479 1481 1488 1489 1489 1490 1489 1491 1492 1494 1495 1496 1496 1496 1496 1495 1495 1494 1493 1492 1490 1489 1487 1485 1484 1482 1480 1479 1478 1476 1475 1473 1471 1470 1468
1490 1495 1492 1489 1481 1477 1479 1477 1476 1479 1480 1483 1486 1490 1489 1491 1492 1494 1495 1495 1496 1497 1496 1496 1495 1494 1493 1492 1491 1489 1488 1486 1484 1483 1481 1480 1478 1477 1475 1474 1472 1470 1468 1467
1489 1494 1496 1494 1483 1480 1486 1480 1479 1481 1482 1485 1490 1491 1490 1491 1493 1495 1495 1496 1496 1496 1496 1496 1495 1493 1492 1491 1489 1488 1487 1485 1484 1482 1480 1479 1477 1476 1474 1473 1471 1469 1467 1466
1492 1494 1494 1492 1491 1501 1488 1477 1478 1482 1484 1485 1487 1489 1491 1492 1494 1495 1496 1496 1496 1496 1496 1495 1494 1492 1491 1490 1489 1487 1486 1484 1483 1481 1479 1478 1476 1475 1473 1472 1470 1468 1466 1465
1489 1493 1496 1495 1496 1492 1484 1480 1481 1486 1489 1488 1489 1491 1492 1493 1494 1495 1496 1496 1496 1496 1495 1494 1493 1492 1490 1489 1488 1486 1484 1483 1482 1480 1478 1477 1475 1474 1472 1470 1469 1467 1465 1464
1485 1488 1495 1495 1500 1502 1490 1481 1481 1485 1492 1491 1492 1493 1494 1494 1495 1496 1496 1495 1495 1495 1494 1493 1492 1491 1489 1488 1486 1485 1483 1482 1480 1479 1477 1476 1474 1473 1471 1469 1468 1466 1464 1463
1488 1490 1493 1495 1497 1491 1486 1484 1484 1495 1499 1495 1494 1495 1496 1496 1497 1498 1496 1496 1495 1494 1493 1492 1491 1489 1488 1487 1485 1483 1482 1480 1479 1478 1476 1475 1473 1472 1470 1468 1467 1465 1463 1462
1487 1490 1492 1492 1497 1497 1487 1486 1491 1497 1496 1495 1495 1496 1497 1497 1497 1496 1495 1495 1494 1493 1492 1490 1489 1488 1487 1485 1484 1482 1480 1479 1478 1476 1475 1473 1472 1471 1469 1467 1465 1464 1462 1461
1482 1485 1486 1490 1494 1490 1489 1491 1493 1495 1495 1496 1496 1496 1496 1496 1496 1495 1494 1494 1493 1491 1490 1489 1488 1486 1485 1484 1482 1481 1479 1478 1476 1475 1473 1472 1471 1469 1467 1466 1464 1462 1461 1460
1480 1481 1484 1486 1487 1488 1490 1491 1493 1494 1495 1495 1495 1496 1495 1495 1494 1494 1493 1492 1491 1490 1489 1487 1486 1485 1484 1482 1481 1479 1478 1476 1475 1474 1472 1471 1469 1468 1466 1464 1463 1461 1460 1459
1483 1483 1484 1486 1486 1488 1489 1490 1492 1493 1493 1494 1494 1494 1494 1493 1492 1492 1491 1490 1490 1488 1487 1486 1485 1484 1482 1481 1479 1478 1476 1475 1474 1472 1471 1470 1469 1467 1465 1463 1462 1461 1459 1458
1483 1484 1485 1486 1487 1488 1489 1490 1491 1492 1492 1493 1493 1493 1492 1492 1491 1490 1489 1489 1488 1487 1485 1484 1483 1482 1481 1479 1478 1476 1475 1474 1472 1471 1469 1468 1467 1466 1464 1463 1461 1460 1459 1457